Location: Unspecified
(0.0000°N, 0.0000°E)
Time: 06:33:36
(UTC+00:00)

Altair - All Passes

Search period start: 21 November 2017 00:00
Search period end: 01 December 2017 00:00
Orbit: 1501 x 1683 km, 47.2° (Epoch: 20 November)

Date Brightness Start Highest point End Pass type
(mag) Time Alt. Az. Time Alt. Az. Time Alt. Az.
21 Nov - 04:21:49 10° S 04:28:22 20° SE 04:34:43 10° E visible
21 Nov - 06:23:41 10° SW 06:33:10 80° NW 06:42:22 10° NE daylight
21 Nov - 08:33:43 10° WNW 08:38:00 14° NW 08:42:15 10° NNW daylight
21 Nov - 17:08:26 10° NNW 17:17:36 46° NE 17:27:02 10° ESE daylight
21 Nov - 19:13:12 10° WNW 19:22:15 40° SW 19:31:34 10° SSE visible
22 Nov - 03:57:12 10° S 04:03:07 18° SE 04:08:52 10° E visible
22 Nov - 05:58:29 10° SW 06:08:02 89° NW 06:17:16 10° NE daylight
22 Nov - 08:07:31 10° W 08:12:45 16° NW 08:17:58 10° N daylight
22 Nov - 16:43:29 10° NNW 16:52:24 41° NE 17:01:35 10° ESE daylight
22 Nov - 18:47:48 10° WNW 18:57:03 45° SW 19:06:35 10° SSE visible
23 Nov - 03:32:43 10° SSE 03:37:51 15° SE 03:42:51 10° ESE visible
23 Nov - 05:33:19 10° SW 05:42:54 83° SE 05:52:08 10° NE daylight
23 Nov - 07:41:31 10° W 07:47:32 19° NW 07:53:30 10° N daylight
23 Nov - 16:18:36 10° NNW 16:27:13 36° NE 16:36:03 10° ESE daylight
23 Nov - 18:22:26 10° WNW 18:31:51 51° SW 18:41:33 10° SSE visible
24 Nov - 03:08:26 10° SSE 03:12:33 13° SE 03:16:36 10° ESE visible
24 Nov - 05:08:11 10° SW 05:17:45 74° SE 05:26:58 10° NE visible
24 Nov - 07:15:40 10° W 07:22:20 22° NW 07:28:55 10° N daylight
24 Nov - 15:53:45 10° N 16:02:02 32° NE 16:10:30 10° ESE daylight
24 Nov - 17:57:07 10° NW 18:06:39 57° SW 18:16:30 10° SSE visible
25 Nov - 02:44:37 10° SSE 02:47:15 11° SE 02:49:52 10° ESE visible
25 Nov - 04:43:04 10° SSW 04:52:36 67° SE 05:01:46 10° NE visible
25 Nov - 06:49:56 10° W 06:57:08 25° NW 07:04:14 10° N daylight
25 Nov - 15:28:57 10° N 15:36:49 28° NE 15:44:52 10° ESE daylight
25 Nov - 17:31:51 10° NW 17:41:27 63° SW 17:51:25 10° SSE daylight
25 Nov - 19:44:37 10° WSW 19:47:00 11° SW 19:49:25 10° SSW visible
26 Nov - 04:17:58 10° SSW 04:27:28 60° SE 04:36:32 10° NE visible
26 Nov - 06:24:16 10° WSW 06:31:57 28° NW 06:39:30 10° N daylight
26 Nov - 15:04:13 10° N 15:11:36 25° NE 15:19:10 10° E daylight
26 Nov - 17:06:37 10° NW 17:16:16 70° SW 17:26:18 10° SSE daylight
26 Nov - 19:17:37 10° WSW 19:21:40 13° SW 19:25:46 10° SSW visible
27 Nov - 03:52:55 10° SSW 04:02:17 53° SE 04:11:17 10° NE visible
27 Nov - 05:58:41 10° WSW 06:06:47 32° NW 06:14:42 10° N daylight
27 Nov - 14:39:33 10° N 14:46:23 22° NE 14:53:23 10° E daylight
27 Nov - 16:41:25 10° NW 16:51:06 78° SW 17:01:10 10° SE daylight
27 Nov - 18:51:14 10° WSW 18:56:21 15° SW 19:01:33 10° SSW visible
28 Nov - 03:27:53 10° SSW 03:37:07 47° SE 03:45:58 10° ENE visible
28 Nov - 05:33:09 10° WSW 05:41:37 36° NW 05:49:52 10° NNE daylight
28 Nov - 14:14:58 10° N 14:21:10 19° NE 14:27:28 10° E daylight
28 Nov - 16:16:15 10° NW 16:25:55 86° SW 16:36:00 10° SE daylight
28 Nov - 18:25:08 10° W 18:31:03 17° SW 18:37:06 10° S visible
29 Nov - 03:02:53 10° SSW 03:11:57 42° SE 03:20:37 10° ENE visible
29 Nov - 05:07:41 10° WSW 05:16:28 41° NW 05:25:00 10° NNE visible
29 Nov - 13:50:31 10° NNE 13:55:55 16° NE 14:01:25 10° E daylight
29 Nov - 15:51:08 10° NW 16:00:45 86° NE 16:10:48 10° SE daylight
29 Nov - 17:59:12 10° W 18:05:46 20° SW 18:12:30 10° S visible
30 Nov - 02:37:55 10° SSW 02:46:45 38° SE 02:55:13 10° ENE visible
30 Nov - 04:42:15 10° WSW 04:51:18 46° NW 05:00:04 10° NNE visible
30 Nov - 13:26:15 10° NNE 13:30:40 14° NE 13:35:08 10° ENE daylight
30 Nov - 15:26:02 10° NW 15:35:35 78° NE 15:45:34 10° SE daylight
30 Nov - 17:33:24 10° W 17:40:30 22° SW 17:47:49 10° S daylight
